Location: Poughquag
(41.6090°N, 73.6820°W)
Time: 09:17:54
(UTC-05:00)

Vanguard 1 - Pass Details

Date: 08 December 2023
Orbit: 653 x 3826 km, 34.3° (Epoch: 25 February)

Event Time Altitude Azimuth Distance (km) Brightness Sun altitude
Rises 14:54:05 0° 203° (SSW) 4,491 14.9 12.4°
Reaches altitude 10° 14:57:07 10° 191° (SSW) 3,882 14.3 12.0°
Maximum altitude 15:06:04 30° 135° (SE) 3,558 13.0 10.8°
Drops below altitude 10° 15:20:01 10° 85° (E) 6,167 13.7 8.9°
Sets 15:26:31 0° 76° (ENE) 7,587 14.0 8.0°
